Regional Weather Roundup
Issued by NWS

Home | Current Version | Previous Version | Graphics & Text | Print | Product List | Glossary On
Versions: 1 2 3 4 5 6 7 8 9 10 11 12 13 14 15 16 17 18 19 20 21 22 23 24 25 26 27 28 29 30 31 32 33 34 35 36 37 38 39 40 41 42 43 44 45 46 47 48 49 50
000
ASUS43 KBIS 162310
RWRND

NORTH DAKOTA REGIONAL WEATHER ROUNDUP
NATIONAL WEATHER SERVICE BISMARCK ND
500 PM CST MON JAN 16 2017

NOTE: "FAIR" INDICATES FEW OR NO CLOUDS BELOW 12,000 FEET WITH NO
SIGNIFICANT WEATHER AND/OR OBSTRUCTIONS TO VISIBILITY.


NDZ001>003-009>011-017-170000-
NORTHWEST NORTH DAKOTA

CITY           SKY/WX    TMP DP  RH WIND       PRES   REMARKS
WILLISTON      FAIR      19  13  77 SW3       30.10F
MINOT          FAIR      25  18  74 W10       30.05R WCI  15
$$

NDZ018>021-031>035-040>046-170000-
SOUTHWEST NORTH DAKOTA

CITY           SKY/WX    TMP DP  RH WIND       PRES   REMARKS
BISMARCK       FAIR      25  16  68 W10       30.09R WCI  15
DICKINSON      FAIR      19  13  77 W10       30.06R WCI   7
GARRISON         N/A     18  13  80 NW3       30.06R
HETTINGER ARPT CLEAR     19  13  77 NW10      30.08R WCI   7
$$

NDZ004>008-012>016-024-026-027-054-170000-
NORTHEAST NORTH DAKOTA

CITY           SKY/WX    TMP DP  RH WIND       PRES   REMARKS
GRAND FORKS    CLOUDY    17  10  74 W5        30.04S WCI  10
GRND FRKS AFB  CLOUDY    17  10  72 NW5       30.04S WCI  10
DEVILS LAKE    FAIR      14  10  84 W9        30.04R WCI   2
$$

NDZ022-023-025-028>030-036>039-047>053-170000-
SOUTHEAST NORTH DAKOTA

CITY           SKY/WX    TMP DP  RH WIND       PRES   REMARKS
FARGO          CLOUDY    18  10  71 SW3       30.05R
JAMESTOWN      FAIR      15  10  80 W8        30.02S WCI   4
$$





USA.gov is the U.S. government's official web portal to all federal, state and local government web resources and services.